Location: Newark
(23.1300°N, 73.6109°E)
Time: 09:33:29
(UTC+00:00)

ISS - Visible Passes

Search period start: 15 May 2021 00:00
Search period end: 25 May 2021 00:00
Orbit: 417 x 422 km, 51.6° (Epoch: 15 May)

Date Brightness Start Highest point End Pass type
(mag) Time Alt. Az. Time Alt. Az. Time Alt. Az.
15 May -0.6 15:20:08 10° W 15:22:23 17° NW 15:24:38 10° N visible
15 May -3.6 23:32:00 10° NW 23:35:22 79° NE 23:38:43 10° SE visible
16 May -1.7 14:31:51 10° WSW 14:34:51 31° NW 14:37:53 10° NNE visible
16 May -2.1 22:44:46 10° NNW 22:47:55 35° NE 22:51:02 10° ESE visible
17 May -0.9 22:01:09 18° ENE 22:01:09 18° ENE 22:02:52 10° E visible
17 May -2.5 23:34:31 10° WNW 23:37:05 21° SW 23:39:41 10° S visible
